ANA1229 RJSS-RJCC

Flight info

Callsign ANA1229
Flight time 0h 54m
Altitude 33000
Route SAMBO Y119 OHMAR Y13 SIRAO Y139 NAVER
Aircraft B738/M-SDE2E3FGHIRWXY/LB1

Departure

Time 2026-04-14 12:01
Airport Sendai Airport (RJSS)

Arrival

Time 2026-04-14 12:56
Airport New Chitose Airport (RJCC)
Time Latitude Longitude Altitude Speed Heading
2026-04-14 11:34 38.13887 140.93010 24 ft 0 kts 172°
2026-04-14 11:53 38.13897 140.93007 24 ft 2 kts 173°
2026-04-14 11:53 38.13911 140.93005 24 ft 1 kts 172°
2026-04-14 11:53 38.13921 140.93004 24 ft 2 kts 170°
2026-04-14 11:54 38.13935 140.92998 24 ft 2 kts 151°
2026-04-14 11:54 38.13947 140.92987 24 ft 2 kts 137°
2026-04-14 11:54 38.13957 140.92972 24 ft 2 kts 122°
2026-04-14 11:54 38.13964 140.92955 24 ft 2 kts 108°
2026-04-14 11:55 38.13967 140.92937 24 ft 2 kts 93°
2026-04-14 11:55 38.13967 140.92926 24 ft 1 kts 84°
2026-04-14 11:55 38.13966 140.92918 24 ft 0 kts 83°
2026-04-14 11:58 38.13973 140.92952 24 ft 9 kts 59°
2026-04-14 11:58 38.14025 140.93022 24 ft 10 kts 51°
2026-04-14 11:59 38.14044 140.93111 24 ft 10 kts 82°
2026-04-14 11:59 38.14052 140.93190 24 ft 6 kts 82°
2026-04-14 11:59 38.14065 140.93247 24 ft 6 kts 59°
2026-04-14 11:59 38.14100 140.93277 24 ft 6 kts 11°
2026-04-14 12:00 38.14142 140.93272 24 ft 6 kts 353°
2026-04-14 12:00 38.14183 140.93266 24 ft 5 kts 353°
2026-04-14 12:00 38.14219 140.93242 24 ft 7 kts 282°
2026-04-14 12:00 38.14212 140.93144 24 ft 15 kts 263°
2026-04-14 12:01 38.14184 140.92868 24 ft 60 kts 262°
2026-04-14 12:01 38.14096 140.92012 24 ft 134 kts 263°
2026-04-14 12:01 38.13951 140.90593 210 ft 175 kts 263°
2026-04-14 12:01 38.13769 140.89037 877 ft 186 kts 249°
2026-04-14 12:02 38.12937 140.87911 1806 ft 176 kts 201°
2026-04-14 12:02 38.11771 140.87808 2481 ft 176 kts 164°
2026-04-14 12:02 38.10764 140.88696 3001 ft 191 kts 130°
2026-04-14 12:02 38.09977 140.90300 3087 ft 232 kts 124°
2026-04-14 12:03 38.09115 140.92114 3608 ft 249 kts 124°
2026-04-14 12:03 38.08215 140.94008 4397 ft 255 kts 124°
2026-04-14 12:03 38.07291 140.95953 5151 ft 262 kts 123°
2026-04-14 12:03 38.06364 140.97963 5921 ft 268 kts 120°
2026-04-14 12:04 38.05671 141.00186 6606 ft 280 kts 108°
2026-04-14 12:04 38.05194 141.02576 7425 ft 284 kts 105°
2026-04-14 12:04 38.04699 141.05008 8236 ft 289 kts 106°
2026-04-14 12:04 38.04152 141.07466 9058 ft 295 kts 107°
2026-04-14 12:05 38.03575 141.09976 9848 ft 301 kts 107°
2026-04-14 12:05 38.02980 141.12532 10593 ft 310 kts 107°
2026-04-14 12:05 38.02346 141.15248 11053 ft 328 kts 107°
2026-04-14 12:05 38.01684 141.18074 11581 ft 345 kts 107°
2026-04-14 12:06 38.00988 141.21040 12151 ft 359 kts 107°
2026-04-14 12:06 38.00278 141.24063 13004 ft 364 kts 107°
2026-04-14 12:06 37.99547 141.27170 13894 ft 368 kts 107°
2026-04-14 12:06 37.98812 141.30292 14712 ft 375 kts 107°
2026-04-14 12:07 37.98071 141.33435 15552 ft 380 kts 107°
2026-04-14 12:07 37.97304 141.36684 16346 ft 386 kts 107°
2026-04-14 12:07 37.96546 141.39938 17208 ft 390 kts 105°
2026-04-14 12:07 37.95954 141.43282 17964 ft 396 kts 102°
2026-04-14 12:08 37.95461 141.46750 18653 ft 402 kts 96°
2026-04-14 12:08 37.95556 141.50297 19250 ft 409 kts 75°
2026-04-14 12:08 37.96647 141.53548 19966 ft 407 kts 54°
2026-04-14 12:08 37.98416 141.56381 20533 ft 412 kts 44°
2026-04-14 12:09 38.00428 141.58920 21163 ft 412 kts 34°
2026-04-14 12:09 38.02898 141.60671 21738 ft 403 kts 12°
2026-04-14 12:09 38.05601 141.61365 22316 ft 398 kts
2026-04-14 12:09 38.08372 141.61887 22882 ft 402 kts
2026-04-14 12:10 38.11150 141.62447 23435 ft 406 kts
2026-04-14 12:10 38.13938 141.63029 23955 ft 411 kts
2026-04-14 12:10 38.16779 141.63631 24472 ft 415 kts
2026-04-14 12:10 38.19597 141.64226 25026 ft 417 kts
2026-04-14 12:11 38.22493 141.64841 25589 ft 420 kts
2026-04-14 12:11 38.25397 141.65456 26048 ft 425 kts
2026-04-14 12:11 38.28302 141.66072 26534 ft 428 kts
2026-04-14 12:11 38.31250 141.66704 27040 ft 431 kts
2026-04-14 12:12 38.34179 141.67329 27513 ft 434 kts
2026-04-14 12:12 38.37175 141.67966 27932 ft 437 kts
2026-04-14 12:12 38.40173 141.68613 28663 ft 433 kts
2026-04-14 12:12 38.43144 141.69255 29331 ft 430 kts
2026-04-14 12:13 38.46095 141.69884 29957 ft 426 kts 359°
2026-04-14 12:13 38.49001 141.70291 30502 ft 419 kts 353°
2026-04-14 12:13 38.51904 141.70230 30995 ft 407 kts 344°
2026-04-14 12:13 38.54646 141.69551 31090 ft 400 kts 335°
2026-04-14 12:14 38.59817 141.67226 31097 ft 389 kts 330°
2026-04-14 12:14 38.64839 141.64749 31239 ft 388 kts 330°
2026-04-14 12:15 38.67354 141.63506 31633 ft 389 kts 330°
2026-04-14 12:15 38.69886 141.62247 32037 ft 390 kts 329°
2026-04-14 12:15 38.72407 141.60992 32457 ft 391 kts 329°
2026-04-14 12:15 38.74940 141.59735 32953 ft 390 kts 330°
2026-04-14 12:16 38.77499 141.58461 33092 ft 395 kts 329°
2026-04-14 12:16 38.80051 141.57187 33106 ft 398 kts 329°
2026-04-14 12:16 38.85175 141.54633 33097 ft 393 kts 329°
2026-04-14 12:17 38.90286 141.52084 33096 ft 394 kts 329°
2026-04-14 12:17 38.95385 141.49533 33094 ft 394 kts 329°
2026-04-14 12:18 39.00482 141.46976 33092 ft 391 kts 329°
2026-04-14 12:18 39.05619 141.44385 33091 ft 405 kts 329°
2026-04-14 12:19 39.10965 141.41685 33088 ft 416 kts 329°
2026-04-14 12:19 39.16365 141.38979 33087 ft 415 kts 330°
2026-04-14 12:20 39.21761 141.36264 33087 ft 415 kts 329°
2026-04-14 12:20 39.27127 141.33553 33087 ft 415 kts 329°
2026-04-14 12:21 39.32497 141.30833 33087 ft 416 kts 329°
2026-04-14 12:21 39.37899 141.28101 33088 ft 416 kts 329°
2026-04-14 12:22 39.43576 141.26279 33094 ft 433 kts 342°
2026-04-14 12:22 39.49624 141.25481 33091 ft 435 kts 344°
2026-04-14 12:23 39.55655 141.24719 33089 ft 443 kts 343°
2026-04-14 12:23 39.61852 141.23866 33082 ft 448 kts 343°
2026-04-14 12:24 39.68029 141.23006 33079 ft 447 kts 343°
2026-04-14 12:24 39.74222 141.22121 33076 ft 446 kts 343°
2026-04-14 12:25 39.80363 141.21234 33074 ft 446 kts 343°
2026-04-14 12:25 39.86532 141.20337 33077 ft 448 kts 343°
2026-04-14 12:26 39.92741 141.19431 33074 ft 447 kts 343°
2026-04-14 12:26 39.98888 141.18533 33075 ft 447 kts 343°
2026-04-14 12:27 40.05074 141.17629 33074 ft 448 kts 343°
2026-04-14 12:27 40.11270 141.16717 33074 ft 447 kts 343°
2026-04-14 12:28 40.17464 141.15799 33074 ft 450 kts 343°
2026-04-14 12:28 40.23651 141.14891 33084 ft 447 kts 343°
2026-04-14 12:29 40.29812 141.13979 33081 ft 446 kts 342°
2026-04-14 12:29 40.36008 141.13060 33073 ft 447 kts 342°
2026-04-14 12:30 40.42145 141.12149 33076 ft 445 kts 342°
2026-04-14 12:30 40.48340 141.11229 33076 ft 446 kts 342°
2026-04-14 12:31 40.54492 141.10312 33075 ft 446 kts 342°
2026-04-14 12:31 40.60641 141.09396 33078 ft 446 kts 342°
2026-04-14 12:32 40.66825 141.08469 33079 ft 446 kts 342°
2026-04-14 12:32 40.73090 141.08119 33078 ft 466 kts 355°
2026-04-14 12:33 40.76311 141.08876 33082 ft 477 kts
2026-04-14 12:33 40.79543 141.09926 33082 ft 479 kts
2026-04-14 12:33 40.85953 141.12135 33084 ft 479 kts
2026-04-14 12:34 40.92410 141.14272 33090 ft 480 kts
2026-04-14 12:34 40.98898 141.16347 33093 ft 478 kts
2026-04-14 12:35 41.05365 141.18384 33097 ft 477 kts
2026-04-14 12:35 41.11817 141.20413 33095 ft 477 kts
2026-04-14 12:36 41.18299 141.22443 33098 ft 476 kts
2026-04-14 12:36 41.24755 141.24464 32851 ft 477 kts
2026-04-14 12:37 41.28015 141.25484 32292 ft 479 kts
2026-04-14 12:37 41.31198 141.26488 31705 ft 476 kts
2026-04-14 12:37 41.34407 141.27504 31112 ft 470 kts
2026-04-14 12:37 41.37575 141.28508 30516 ft 467 kts
2026-04-14 12:38 41.43880 141.30487 29166 ft 468 kts
2026-04-14 12:38 41.47014 141.31470 28448 ft 468 kts
2026-04-14 12:38 41.50208 141.32475 27705 ft 469 kts
2026-04-14 12:39 41.53340 141.33461 26987 ft 471 kts
2026-04-14 12:39 41.56552 141.34476 26241 ft 468 kts
2026-04-14 12:39 41.59676 141.35471 25512 ft 462 kts
2026-04-14 12:39 41.62793 141.36464 24680 ft 460 kts
2026-04-14 12:40 41.65887 141.37447 23797 ft 458 kts
2026-04-14 12:40 41.68934 141.38413 22886 ft 456 kts
2026-04-14 12:40 41.72020 141.39392 22013 ft 452 kts
2026-04-14 12:40 41.75036 141.40352 21146 ft 449 kts
2026-04-14 12:41 41.78085 141.41322 20261 ft 445 kts
2026-04-14 12:41 41.81050 141.42268 19343 ft 437 kts
2026-04-14 12:41 41.83933 141.43195 18431 ft 424 kts
2026-04-14 12:41 41.86769 141.44106 17496 ft 412 kts
2026-04-14 12:42 41.89476 141.44975 16598 ft 401 kts
2026-04-14 12:42 41.92153 141.45831 15686 ft 391 kts
2026-04-14 12:42 41.94774 141.46668 14751 ft 383 kts
2026-04-14 12:42 41.97304 141.47566 13835 ft 378 kts 11°
2026-04-14 12:43 41.99771 141.48677 12914 ft 373 kts 13°
2026-04-14 12:43 42.02155 141.49843 12246 ft 359 kts 14°
2026-04-14 12:43 42.04452 141.50980 11850 ft 340 kts 14°
2026-04-14 12:43 42.06619 141.52045 11468 ft 322 kts 14°
2026-04-14 12:44 42.08680 141.53047 11093 ft 309 kts 14°
2026-04-14 12:44 42.10667 141.54007 10696 ft 297 kts 14°
2026-04-14 12:44 42.12584 141.54933 10301 ft 287 kts 14°
2026-04-14 12:45 42.16311 141.56725 9505 ft 283 kts 14°
2026-04-14 12:45 42.18145 141.57611 9100 ft 282 kts 14°
2026-04-14 12:45 42.19989 141.58502 8691 ft 281 kts 15°
2026-04-14 12:45 42.21826 141.59392 8287 ft 280 kts 15°
2026-04-14 12:46 42.23657 141.60280 7899 ft 277 kts 15°
2026-04-14 12:46 42.25447 141.61148 7518 ft 275 kts 15°
2026-04-14 12:46 42.27236 141.62016 7135 ft 273 kts 15°
2026-04-14 12:46 42.29035 141.62891 6744 ft 271 kts 15°
2026-04-14 12:47 42.30789 141.63742 6357 ft 269 kts 16°
2026-04-14 12:47 42.32550 141.64598 5971 ft 267 kts 16°
2026-04-14 12:47 42.34299 141.65449 5587 ft 265 kts 17°
2026-04-14 12:47 42.36040 141.66298 5206 ft 263 kts 17°
2026-04-14 12:48 42.37736 141.67123 4870 ft 259 kts 17°
2026-04-14 12:48 42.39417 141.67943 4528 ft 256 kts 18°
2026-04-14 12:48 42.41064 141.68747 4162 ft 247 kts 17°
2026-04-14 12:48 42.42646 141.69519 3867 ft 236 kts 17°
2026-04-14 12:49 42.44174 141.70265 3626 ft 231 kts 18°
2026-04-14 12:49 42.45684 141.71002 3360 ft 228 kts 18°
2026-04-14 12:49 42.47151 141.71719 3101 ft 225 kts 18°
2026-04-14 12:49 42.48595 141.72424 2993 ft 216 kts 18°
2026-04-14 12:50 42.49997 141.73109 2999 ft 214 kts 18°
2026-04-14 12:50 42.52913 141.73781 3007 ft 213 kts 351°
2026-04-14 12:50 42.54367 141.73511 2994 ft 213 kts 352°
2026-04-14 12:51 42.55836 141.73262 2985 ft 204 kts 352°
2026-04-14 12:51 42.57188 141.73025 3010 ft 189 kts 351°
2026-04-14 12:51 42.58475 141.72792 2993 ft 184 kts 351°
2026-04-14 12:51 42.59755 141.72560 2998 ft 186 kts 351°
2026-04-14 12:52 42.61028 141.72327 2997 ft 182 kts 352°
2026-04-14 12:52 42.62232 141.72159 2972 ft 165 kts 353°
2026-04-14 12:52 42.63348 141.71938 2756 ft 160 kts 351°
2026-04-14 12:52 42.64426 141.71729 2550 ft 155 kts 352°
2026-04-14 12:53 42.65470 141.71533 2290 ft 146 kts 352°
2026-04-14 12:53 42.66446 141.71356 2112 ft 141 kts 353°
2026-04-14 12:53 42.67428 141.71182 1913 ft 144 kts 353°
2026-04-14 12:53 42.68377 141.71016 1715 ft 134 kts 353°
2026-04-14 12:54 42.69286 141.70856 1521 ft 129 kts 353°
2026-04-14 12:54 42.70188 141.70699 1354 ft 133 kts 353°
2026-04-14 12:54 42.71115 141.70537 1159 ft 133 kts 353°
2026-04-14 12:54 42.72023 141.70380 968 ft 130 kts 353°
2026-04-14 12:55 42.72928 141.70219 799 ft 130 kts 353°
2026-04-14 12:55 42.73823 141.70062 633 ft 131 kts 353°
2026-04-14 12:55 42.74723 141.69905 459 ft 131 kts 353°
2026-04-14 12:55 42.75632 141.69745 262 ft 130 kts 353°
2026-04-14 12:56 42.76526 141.69586 100 ft 126 kts 353°
2026-04-14 12:56 42.77271 141.69458 89 ft 80 kts 352°
2026-04-14 12:56 42.77673 141.69373 89 ft 47 kts 340°
2026-04-14 12:56 42.77888 141.69205 89 ft 25 kts 323°
2026-04-14 12:57 42.78005 141.69083 89 ft 19 kts 323°
2026-04-14 12:57 42.78115 141.68970 89 ft 19 kts 323°
2026-04-14 12:57 42.78224 141.68857 88 ft 19 kts 323°
2026-04-14 12:57 42.78304 141.68773 88 ft 8 kts 322°
2026-04-14 12:58 42.78350 141.68724 88 ft 7 kts 323°
2026-04-14 12:58 42.78360 141.68715 88 ft 0 kts 323°
2026-04-14 12:58 42.78367 141.68707 88 ft 5 kts 323°
2026-04-14 12:58 42.78432 141.68657 88 ft 12 kts 343°
2026-04-14 12:59 42.78516 141.68640 88 ft 13 kts 353°
2026-04-14 12:59 42.78641 141.68619 88 ft 20 kts 353°
2026-04-14 12:59 42.78780 141.68591 88 ft 19 kts 349°
2026-04-14 12:59 42.78915 141.68552 88 ft 19 kts 344°
2026-04-14 13:00 42.79037 141.68472 88 ft 19 kts 324°
2026-04-14 13:00 42.79136 141.68350 88 ft 19 kts 311°
2026-04-14 13:00 42.79211 141.68198 88 ft 19 kts 296°
2026-04-14 13:00 42.79254 141.68028 88 ft 19 kts 283°
2026-04-14 13:01 42.79241 141.67891 88 ft 14 kts 218°
2026-04-14 13:01 42.79158 141.67862 88 ft 11 kts 205°
2026-04-14 13:01 42.79090 141.67819 88 ft 9 kts 176°
2026-04-14 13:01 42.79037 141.67827 88 ft 0 kts 174°